STARLINK-1136 (45089 NORAD) Tracking and Keplerian Element Data

This shows tracking and keplerian element data for the satellite.

Feedback or suggestion? Click here.




ElementValue
Catalog45089
NameSTARLINK-1136
Epoch Orbit162
Epoch Day93.91667824
Epoch Year2020
RAAN275.5226
Inclination53.0008
Eccentricity0.0001433
Argument of Perigee52.6975
Mean Anonmoly261.7481
Mean Motion15.62709107
Decay Rate0.00065315
L11 45089U 20006AX 20093.91667824 .00065315 00000-0 71462-3 0 9994
L22 45089 53.0008 275.5226 0001433 52.6975 261.7481 15.62709107 1624

Live tracking and technical data element details for STARLINK-1136 (NORAD 45089). STARLINK-1136 can be tracked NOW for your location showing map with azimuth and elevation plus other details from your city location.

Track the satellite on the map from your city or location and see movement details for azimuth, elevation, latitude, longitude, range, height, and movement on the map or in text.







IsCatalogInMostPopularTable: catalog: 45089, numindb: 14
Update: records affected: 1



GetName: 45089 STARLINK-1136

Hit Count: updated at: Fri, 03 Apr 2020 23:08:18 GMT